Torna al catalogo

THORAD AGENA D DEB

AttivoPO
NORAD 4918·DEBRIS·🇺🇸 United States

Lanciato Apr 8, 1970 da Vandenberg Space Force Base

Loading…

Prossimi Passaggi (prossime 24 ore)

TLE

AggiornatoSource: Space-Track

Epoca: Sep 13, 2026, 19:54 UTC

1 04918U 70025FQ  26256.82920974  .00000346  00000-0  77233-3 0  9996
2 04918  99.4939  31.4635 0162509 188.9627 170.8586 13.29662083724416

Traccia THORAD AGENA D DEB in tempo reale con AllMySat

Download on the App Store